Hoquiam, WA

8:53 AM PDT on March 26, 2017 (GMT -0700)
Bowerman

Weather History for KHQM - May, 2013

Change the Weather History Date:

Monday, May 20, 2013

  Actual Average Record
Temperature  
Mean Temperature 54 °F 54 °F  
Max Temperature 59 °F 60 °F 92 °F (1963)
Min Temperature 49 °F 47 °F 36 °F (1975)
Degree Days  
Heating Degree Days 11 11  
Month to date heating degree days 196 254  
Cooling Degree Days 0 0  
Month to date cooling degree days 3 0  
Year to date cooling degree days 3 0  
Growing Degree Days 4 (Base 50)    
Moisture  
Dew Point 45 °F    
Average Humidity 76    
Maximum Humidity 86    
Minimum Humidity 66    
Precipitation  
Precipitation 0.03 in 0.09 in 0.88 in (2007)
Month to date precipitation 1.09 2.23  
Year to date precipitation 27.41 31.86  
Sea Level Pressure  
Sea Level Pressure 30.22 in    
Wind  
Wind Speed 6 mph (West)    
Max Wind Speed 18 mph    
Max Gust Speed 21 mph    
Visibility 10 miles    
Events Rain    
T = Trace of Precipitation, MM = Missing Value Source: NWS Daily Summary

Daily Weather History Graph

Daily Weather History Graph

Search for Another Location

Airport or City:

Trip Planner

Search our weather history database for the weather conditions in past years. The results will help you decide how hot, cold, wet, or windy it might be!

Date:

Astronomy

May. 20, 2013 Rise Set
Actual Time 5:34 AM PDT 8:50 PM PDT
Civil Twilight 4:57 AM PDT 9:27 PM PDT
Nautical Twilight 4:09 AM PDT 10:16 PM PDT
Astronomical Twilight 3:08 AM PDT 11:17 PM PDT
Moon 3:47 PM PDT (5/20) 2:51 AM PDT (5/20)
Length of Visible Light 16h 30m
Length of Day
15h 16m
Waxing Gibbous, 76% of the Moon is Illuminated
May 20
Waxing Gibbous
May 24
Full
May 31
Last Quarter
Jun 8
New
Jun 16
First Quarter

Hourly Weather History & Observations

Time (PDT) Temp. Dew Point Humidity Pressure Visibility Wind Dir Wind Speed Gust Speed Precip Events Conditions
12:08 AM 50.0 °F 44.6 °F 82% 30.40 in 10.0 mi Calm Calm - N/A   Scattered Clouds
12:22 AM 50.0 °F 44.6 °F 82% 30.40 in 10.0 mi West 4.6 mph - N/A   Mostly Cloudy
12:53 AM 51.1 °F 45.0 °F 80% 30.41 in 10.0 mi West 5.8 mph - N/A   Overcast
1:53 AM 50.0 °F 45.0 °F 83% 30.40 in 10.0 mi West 4.6 mph - N/A   Overcast
2:53 AM 51.1 °F 45.0 °F 80% 30.38 in 10.0 mi Calm Calm - N/A   Overcast
3:53 AM 51.8 °F 44.6 °F 76% 30.35 in 10.0 mi Calm Calm - N/A   Overcast
4:53 AM 51.8 °F 44.6 °F 76% 30.33 in 10.0 mi NW 3.5 mph - N/A   Overcast
5:53 AM 50.0 °F 44.1 °F 80% 30.34 in 10.0 mi NW 4.6 mph - N/A   Overcast
6:53 AM 51.8 °F 44.6 °F 76% 30.32 in 10.0 mi NW 3.5 mph - N/A   Overcast
7:53 AM 52.0 °F 44.1 °F 74% 30.31 in 10.0 mi NNW 4.6 mph - N/A   Overcast
8:53 AM 53.1 °F 44.1 °F 71% 30.29 in 10.0 mi West 3.5 mph - N/A   Overcast
9:53 AM 54.0 °F 46.0 °F 75% 30.28 in 10.0 mi SSW 5.8 mph - N/A   Overcast
10:53 AM 54.0 °F 46.0 °F 75% 30.26 in 10.0 mi WSW 8.1 mph - N/A   Overcast
11:53 AM 55.0 °F 46.9 °F 74% 30.24 in 10.0 mi SSW 8.1 mph - N/A   Mostly Cloudy
12:53 PM 55.9 °F 46.9 °F 72% 30.22 in 10.0 mi SW 8.1 mph - N/A   Mostly Cloudy
1:53 PM 55.9 °F 46.0 °F 69% 30.20 in 10.0 mi WSW 11.5 mph - N/A   Overcast
2:53 PM 57.9 °F 46.0 °F 65% 30.17 in 10.0 mi WSW 8.1 mph - N/A   Mostly Cloudy
3:07 PM 57.2 °F 46.4 °F 67% 30.15 in 10.0 mi SW 11.5 mph - N/A   Scattered Clouds
3:53 PM 57.9 °F 46.9 °F 67% 30.14 in 10.0 mi WSW 13.8 mph - N/A   Clear
4:53 PM 57.0 °F 46.0 °F 67% 30.10 in 10.0 mi WSW 13.8 mph - N/A   Clear
5:53 PM 55.9 °F 45.0 °F 67% 30.07 in 10.0 mi WNW 6.9 mph - N/A   Clear
6:53 PM 53.6 °F 44.6 °F 72% 30.05 in 10.0 mi West 13.8 mph - N/A   Mostly Cloudy
7:53 PM 52.0 °F 45.0 °F 77% 30.03 in 8.0 mi WNW 5.8 mph - 0.00 in Rain Light Rain
8:53 PM 50.0 °F 46.0 °F 86% 30.01 in 10.0 mi West 8.1 mph - 0.01 in   Overcast
9:53 PM 50.0 °F 46.9 °F 89% 30.01 in 9.0 mi WNW 8.1 mph - 0.01 in   Overcast
10:53 PM 50.0 °F 46.9 °F 89% 29.98 in 10.0 mi Calm Calm - 0.01 in   Overcast
11:53 PM 48.9 °F 46.0 °F 90% 29.97 in 10.0 mi NW 3.5 mph - 0.00 in Rain Light Rain